Location: The Saddle
(36.8333°N, 80.3417°W)
Time: 11:23:03
(UTC-05:00)

A-11 Canister half - Pass Details

Date: 09 December 2023
Orbit: 1512 x 1687 km, 47.2° (Epoch: 22 February)

Event Time Altitude Azimuth Distance (km) Brightness Sun altitude
Rises 20:45:28 0° 192° (SSW) 4,646 11.6 -43.3°
Enters shadow 20:48:03 - 184° (S) 3,936 11.1 -43.8°
Reaches altitude 10° 20:49:04 10° 181° (S) 3,680 - -44.0°
Maximum altitude 20:56:25 27° 127° (SE) 2,626 - -45.5°
Drops below altitude 10° 21:03:57 10° 75° (ENE) 3,783 - -47.0°
Sets 21:07:40 0° 64° (ENE) 4,799 - -47.7°
